IU1DOF-3 Weather Reports


Display with metric or nautical units.
time (UTC)temp
F
wind
direction
speed
MPH
gust
MPH
rain 1hr
in
rain 24hr
in
rain mn
in
humidity
%
barometer
mb
20260510182741 52 267 1.0 2.0 0.00 0.00 0.26 97 1010.5
20260510181726 52 250 2.0 3.0 0.00 0.00 0.26 97 1010.4
20260510180703 52 266 1.0 1.0 0.00 0.00 0.26 97 1010.3
20260510175640 52 277 2.0 2.0 0.00 0.00 0.26 97 1010.5
20260510174630 52 270 0.0 0.0 0.00 0.00 0.26 96 1010.2
20260510173607 53 249 2.0 2.0 0.04 0.00 0.26 96 1010.4
20260510172557 53 266 1.0 2.0 0.00 0.00 0.25 96 1010.5
20260510171536 53 267 2.0 2.0 0.00 0.00 0.25 96 1010.4
20260510170525 53 298 1.0 2.0 0.00 0.00 0.25 95 1010.6
20260510165517 53 267 0.0 1.0 0.00 0.00 0.25 95 1010.3
20260510164453 53 273 1.0 2.0 0.00 0.00 0.25 94 1010.4
20260510163440 53 262 1.0 2.0 0.00 0.00 0.25 94 1010.5
20260510162422 53 251 2.0 2.0 0.00 0.00 0.25 94 1010.6
20260510161358 53 247 2.0 3.0 0.00 0.00 0.25 94 1010.6
20260510160340 54 266 2.0 3.0 0.00 0.00 0.25 94 1010.5
20260510155326 54 278 1.0 2.0 0.00 0.00 0.25 93 1010.7
20260510154302 54 243 3.0 4.0 0.07 0.00 0.25 92 1010.7
20260510153253 55 250 2.0 3.0 0.00 0.00 0.24 90 1010.8
20260510152240 55 251 0.0 1.0 0.00 0.00 0.24 88 1010.7
20260510151223 55 253 3.0 4.0 0.00 0.00 0.24 85 1010.6
20260510150158 56 246 2.0 3.0 0.00 0.00 0.24 84 1010.8
20260510145139 56 252 0.0 1.0 0.00 0.00 0.24 85 1011.1
20260510144125 57 254 1.0 2.0 0.00 0.00 0.24 83 1010.9
20260510143102 57 256 0.0 1.0 0.00 0.00 0.24 83 1011.1
20260510142042 59 258 1.0 1.0 0.00 0.00 0.24 81 1011.1
20260510141014 57 255 2.0 3.0 0.00 0.00 0.24 83 1011.2
20260510135950 57 255 0.0 0.0 0.00 0.00 0.24 85 1011.4
20260510134939 57 255 2.0 2.0 0.00 0.00 0.24 83 1011.7
20260510133919 58 255 0.0 0.0 0.00 0.00 0.24 82 1011.7
20260510132855 57 255 0.0 1.0 0.00 0.00 0.24 84 1011.9
20260510131840 57 255 0.0 1.0 0.00 0.00 0.24 83 1012.0
20260510130822 57 255 1.0 1.0 0.00 0.00 0.24 85 1012.1
20260510125759 55 255 0.0 0.0 0.00 0.00 0.24 86 1012.1
20260510124740 55 255 1.0 1.0 0.00 0.00 0.24 86 1012.3
20260510123726 55 255 0.0 1.0 0.00 0.00 0.24 87 1012.2
20260510122701 54 256 0.0 1.0 0.00 0.00 0.24 86 1012.1
20260510121638 55 254 0.0 0.0 0.00 0.00 0.24 85 1012.2
20260510120614 55 263 0.0 0.0 0.00 0.00 0.24 86 1012.3
20260510115549 54 263 0.0 0.0 0.00 0.00 0.24 85 1012.6
20260510114539 54 284 0.0 1.0 0.00 0.00 0.24 87 1012.4
20260510113522 53 284 1.0 1.0 0.00 0.00 0.24 88 1012.2
20260510112454 53 284 0.0 0.0 0.00 0.00 0.24 87 1012.6
20260510111439 54 283 0.0 0.0 0.00 0.00 0.24 87 1012.5
20260510110422 53 293 0.0 0.0 0.00 0.00 0.24 88 1012.8
20260510105358 53 295 0.0 0.0 0.00 0.00 0.24 85 1012.7
20260510104340 52 295 0.0 0.0 0.00 0.00 0.24 86 1012.7
20260510103327 51 294 1.0 1.0 0.00 0.00 0.24 90 1012.7
20260510102305 51 295 0.0 0.0 0.00 0.00 0.24 97 1012.7
20260510101238 50 295 0.0 0.0 0.00 0.00 0.24 99 1012.8
20260510100214 51 295 0.0 0.0 0.00 0.00 0.24 99 1013.1
20260510095150 50 295 0.0 0.0 0.00 0.00 0.24 99 1013.2
20260510094140 50 296 0.0 0.0 0.00 0.00 0.24 99 1013.2
20260510093118 49 295 0.0 0.0 0.00 0.00 0.24 99 1013.0
20260510092054 49 296 0.0 0.0 0.00 0.00 0.24 99 1012.9
20260510091039 49 296 0.0 0.0 0.00 0.00 0.24 99 1012.9
20260510090022 50 296 0.0 0.0 0.00 0.00 0.24 99 1012.9
20260510084958 49 296 0.0 0.0 0.00 0.00 0.24 99 1013.1
20260510083941 49 296 0.0 0.0 0.00 0.00 0.24 99 1012.8
20260510082927 49 296 0.0 0.0 0.00 0.00 0.24 99 1012.6
20260510081902 49 295 1.0 1.0 0.00 0.00 0.24 99 1012.8
20260510080838 49 296 0.0 0.0 0.00 0.00 0.24 99 1013.1
20260510075816 49 296 0.0 0.0 0.00 0.00 0.24 99 1012.9
20260510074750 48 300 0.0 0.0 0.00 0.00 0.24 99 1012.7
20260510073739 48 291 0.0 0.0 0.00 0.00 0.24 99 1012.9
20260510072720 48 273 0.0 0.0 0.00 0.00 0.24 99 1013.0
20260510071654 48 273 0.0 0.0 0.00 0.00 0.24 99 1012.8
20260510070632 48 272 0.0 0.0 0.00 0.00 0.24 99 1012.7
20260510065622 48 272 0.0 0.0 0.00 0.00 0.24 99 1012.7
20260510064558 48 272 0.0 0.0 0.00 0.00 0.24 99 1012.6
20260510063534 48 291 0.0 0.0 0.00 0.00 0.24 99 1012.9
20260510062510 48 293 0.0 0.0 0.00 0.00 0.24 99 1012.9
20260510061503 48 293 0.0 0.0 0.00 0.00 0.24 99 1012.8
20260510060454 48 293 0.0 0.0 0.00 0.00 0.24 99 1012.7
20260510055439 48 293 0.0 0.0 0.00 0.00 0.24 99 1012.6
20260510054422 47 292 0.0 0.0 0.00 0.00 0.24 99 1012.6
20260510053358 47 292 0.0 0.0 0.00 0.00 0.24 99 1012.7
20260510052335 47 292 0.0 0.0 0.00 0.00 0.24 99 1012.8
20260510051311 47 292 0.0 0.0 0.00 0.00 0.24 99 1012.8
20260510050247 47 293 0.0 0.0 0.00 0.00 0.24 99 1012.8
20260510045244 47 293 0.0 0.0 0.00 0.00 0.24 99 1012.6
20260510044230 47 291 0.0 0.0 0.00 0.00 0.24 99 1012.8
20260510043207 46 293 0.0 0.0 0.00 0.00 0.24 99 1012.7
20260510042143 47 291 0.0 0.0 0.00 0.00 0.24 99 1012.8
20260510041134 47 291 0.0 0.0 0.04 0.00 0.24 99 1013.0
20260510040127 47 290 0.0 0.0 0.00 0.00 0.23 99 1012.9
20260510035102 47 311 0.0 0.0 0.00 0.00 0.23 99 1013.2
20260510034054 47 311 0.0 0.0 0.07 0.00 0.23 99 1013.2
20260510033039 47 311 0.0 0.0 0.07 0.00 0.23 99 1013.2
20260510032024 47 311 0.0 0.0 0.00 0.00 0.22 99 1013.3
20260510030959 48 311 0.0 0.0 0.11 0.00 0.22 99 1013.4
20260510025939 48 311 0.0 0.0 0.11 0.00 0.20 99 1013.5
20260510024926 48 312 0.0 0.0 0.18 0.00 0.19 99 1013.3
20260510023918 48 312 0.0 0.0 0.11 0.00 0.16 99 1013.4
20260510022910 48 313 0.0 0.0 0.11 0.00 0.14 99 1013.7
20260510021902 48 318 0.0 0.0 0.11 0.00 0.12 99 1013.8
20260510020839 48 320 0.0 0.0 0.07 0.00 0.10 98 1013.7
20260510015831 48 309 0.0 0.0 0.04 0.00 0.09 98 1014.0
20260510014806 48 325 0.0 0.0 0.14 0.00 0.08 98 1014.1
20260510013758 49 296 0.0 0.0 0.00 0.00 0.05 98 1014.0
20260510012740 49 296 0.0 0.0 0.04 0.00 0.05 97 1014.3
20260510011727 49 287 0.0 0.0 0.07 0.00 0.05 97 1014.3
20260510010718 50 294 1.0 2.0 0.04 0.00 0.03 96 1014.2
20260510005655 50 296 0.0 1.0 0.07 0.00 0.03 94 1014.0
20260510004639 50 296 0.0 1.0 0.04 0.00 0.02 92 1014.2
20260510003623 50 300 0.0 0.0 0.07 0.00 0.01 89 1014.0
20260510002558 52 302 3.0 5.0 0.00 0.00 0.00 81 1013.9
20260510001550 54 294 2.0 3.0 0.00 0.00 0.00 79 1013.9
20260510000541 57 328 1.0 2.0 0.00 0.00 0.00 57 1013.7
20260509235519 54 313 3.0 4.0 0.00 0.00 0.00 66 1013.7
20260509234454 52 299 3.0 4.0 0.00 0.00 0.00 89 1013.7
20260509233441 53 277 0.0 0.0 0.00 0.00 0.00 89 1013.6
20260509232423 54 277 1.0 1.0 0.00 0.00 0.00 84 1013.7
20260509231358 54 284 1.0 1.0 0.00 0.00 0.00 83 1013.8
20260509230342 54 284 0.0 0.0 0.00 0.00 0.00 84 1013.7
20260509225326 53 282 0.0 0.0 0.00 0.00 0.00 84 1013.8
20260509224302 54 279 0.0 0.0 0.00 0.00 0.00 84 1013.9
20260509223238 54 284 0.0 0.0 0.00 0.00 0.00 82 1014.3
20260509222214 54 284 0.0 0.0 0.00 0.00 0.00 83 1014.0
20260509221150 54 284 0.0 0.0 0.00 0.00 0.00 84 1014.5
20260509220140 54 285 0.0 0.0 0.00 0.00 0.00 85 1014.0
20260509215119 54 277 0.0 0.0 0.00 0.00 0.00 85 1013.8
20260509214055 55 285 0.0 0.0 0.00 0.00 0.00 84 1014.2
20260509213041 55 283 0.0 0.0 0.00 0.00 0.00 85 1013.8
20260509212023 55 299 0.0 0.0 0.00 0.00 0.00 85 1013.9
20260509210959 55 283 0.0 0.0 0.00 0.00 0.00 85 1013.9
20260509205941 55 283 0.0 0.0 0.00 0.00 0.00 85 1014.0
20260509204926 55 284 0.0 0.0 0.00 0.00 0.00 85 1013.9
20260509203902 56 283 0.0 0.0 0.00 0.00 0.00 85 1014.2
20260509202838 56 283 0.0 0.0 0.00 0.00 0.00 84 1014.4
20260509201815 56 289 0.0 0.0 0.00 0.00 0.00 84 1014.1
20260509200750 57 283 0.0 0.0 0.00 0.00 0.00 83 1014.2
20260509195741 57 283 2.0 2.0 0.00 0.00 0.00 83 1014.3
20260509194719 57 292 2.0 3.0 0.00 0.00 0.00 81 1014.2
20260509193655 57 292 2.0 2.0 0.00 0.00 0.00 81 1014.0
20260509192640 58 291 2.0 2.0 0.00 0.00 0.00 81 1014.1
20260509191623 58 292 2.0 2.0 0.00 0.00 0.00 79 1013.9
20260509190558 58 291 2.0 2.0 0.00 0.00 0.00 82 1013.5
20260509185535 58 282 1.0 1.0 0.00 0.00 0.00 81 1013.5
20260509184526 58 298 2.0 2.0 0.00 0.00 0.00 82 1013.4
20260509183502 58 291 2.0 3.0 0.00 0.00 0.00 81 1013.3